[[{"header":{"parameterUnit":"m.s-1","parameterCategory":1,"la1":30.2991,"la2":30.254,"lo1":-89.0895,"lo2":-89.0444,"dy":0.0017,"dx":0.0017,"nx":28,"ny":28,"refTime":"2024-09-30T03:00:00:Z","depth":0,"parameterNumber":2,"parameterNumberName":"U-component_of_WINDS"},"data":[0,0,0,0,0,0,0,0,0,0,0,0,0,0,0,0,0,0,0,0,0,0,0,0,0,0,0,0,0,0,0,0,0,0,0,0,0,0,0,0,0,0,0,0,0,0,0,0,0,0,0,0,0,0,0,0,0,0,1.5763,1.5764,0,1.5858,1.5859,1.586,1.5845,1.5844,1.5842,1.584,1.5942,1.5946,1.595,0,0,0,0,0,0,0,0,0,0,0,0,0,1.5574,1.5578,1.5763,1.5764,1.5765,1.5858,1.5859,1.586,1.5845,1.5843,1.5842,1.584,1.5941,1.5946,1.5951,0,0,0,0,0,0,0,0,0,0,0,0,0,1.5662,1.5579,1.5763,1.5769,1.577,1.5857,1.5859,1.5861,1.5846,1.5843,1.5841,1.5839,1.5939,1.5945,1.5952,1.604,0,0,1.5971,1.5974,0,0,0,0,0,0,0,0,1.5657,1.5669,1.5767,1.5769,1.577,1.5837,1.583,1.5921,1.5847,1.5817,1.584,1.5837,1.591,1.5918,1.5941,1.6045,1.6049,1.5972,1.5975,1.5978,1.598,0,0,0,0,0,0,0,1.5651,1.5665,1.5801,1.5768,1.5771,1.5769,1.5779,1.5847,1.5876,1.582,1.5819,1.583,1.591,1.5935,1.5944,1.605,1.5971,1.5977,1.5981,1.5983,1.6233,1.6236,0,0,0,0,0,0,1.5642,1.566,1.5798,1.5803,1.5706,1.5774,1.5785,1.5818,1.5875,1.5882,1.5832,1.5829,1.5926,1.5936,1.5947,1.6055,1.5978,1.5984,1.5988,1.6231,1.6234,1.6237,0,0,0,0,0,0,1.5638,1.5655,1.5794,1.5731,1.5749,1.578,1.5818,1.5821,1.5847,1.5885,1.589,1.5852,1.5924,1.5938,1.6017,1.6058,1.5987,1.5993,1.6227,1.6232,1.6236,1.6271,0,0,0,0,0,0,1.5633,1.5653,1.5685,1.5732,1.5752,1.586,1.582,1.5825,1.5857,1.5854,1.5905,1.5911,1.5923,1.6008,1.6023,1.6066,1.5998,1.6224,1.6229,1.6234,1.6266,1.6276,1.6284,0,0,0,0,0,1.5626,1.5692,1.5687,1.5704,1.5793,1.5862,1.5874,1.5885,1.586,1.5894,1.5919,1.5909,1.6052,1.6016,1.6033,1.6078,1.6221,1.6228,1.6234,1.6262,1.6274,1.6284,0,0,0,0,0,0,1.565,1.5698,1.5693,1.5776,1.5815,1.586,1.5902,1.5897,1.5946,1.5941,1.5955,1.5967,1.6046,1.6071,1.603,1.6168,1.6133,1.6143,1.6149,1.616,1.6169,1.6161,1.6003,0,0,0,0,0,1.5665,1.5716,1.5756,1.5825,1.5845,1.5871,1.5901,1.5907,1.5949,1.5965,1.5996,1.6038,1.6093,1.6128,1.618,1.6271,1.6282,1.6311,1.632,1.6327,1.6335,1.6386,1.6399,1.6258,1.6258,1.6258,0,0,1.5696,1.5729,1.576,1.5831,1.5862,1.5916,1.5884,1.5943,1.5983,1.5975,1.605,1.6075,1.6124,1.6209,1.6248,1.6231,1.6377,1.6335,1.634,1.6345,1.6394,1.6407,1.6419,1.6262,1.6262,1.6261,0,0,1.5781,1.581,1.5871,1.5904,1.5951,1.5968,1.5983,1.6029,1.6044,1.612,1.6116,1.6166,1.6259,1.6294,1.6324,1.6425,1.6419,1.6442,1.6488,1.6538,1.6549,1.6559,1.6596,1.6608,1.6451,1.6451,1.6451,0,1.5814,1.5893,1.5904,1.5963,1.5995,1.599,1.6053,1.6084,1.6147,1.617,1.6151,1.6268,1.6301,1.6395,1.6419,1.6444,1.6463,1.6435,1.6546,1.6557,1.6566,1.6601,1.6615,1.6453,1.6453,1.6453,1.6452,0,1.5932,1.5988,1.6032,1.6091,1.6129,1.619,1.6212,1.6249,1.6253,1.6272,1.6352,1.6391,1.6451,1.6474,1.6478,1.657,1.6558,1.6543,1.6508,1.6582,1.6615,1.6628,1.6457,1.6456,1.6455,1.6454,0,0,1.6031,1.6098,1.6114,1.6141,1.6195,1.6239,1.6301,1.6359,1.6391,1.6436,1.6489,1.657,1.6556,1.659,1.6599,1.6643,1.6722,1.6622,1.6624,1.6639,1.6826,1.6836,1.6851,1.6718,1.6721,1.6723,1.6822,0,1.612,1.6228,1.6241,1.6338,1.639,1.6387,1.6442,1.6482,1.6503,1.6552,1.6577,1.6633,1.6611,1.6632,1.6675,1.6702,1.6759,1.6696,1.6769,1.6772,1.6756,1.6868,1.6879,1.697,1.6835,1.6837,1.6838,0,1.6238,1.6284,1.6386,1.6434,1.6456,1.6505,1.656,1.6607,1.6653,1.6666,1.6706,1.6709,1.6776,1.674,1.6833,1.679,1.6822,1.684,1.6844,1.685,1.6808,1.6877,1.6999,1.7012,1.6859,1.6857,1.6856,0,1.63,1.6389,1.6461,1.6485,1.6542,1.6577,1.6603,1.6647,1.6682,1.6731,1.6754,1.6812,1.6843,1.6889,1.6909,1.688,1.7002,1.6967,1.7015,1.7015,1.7039,1.7037,1.7167,1.7061,1.7061,1.7061,1.7061,0,1.6397,1.6459,1.649,1.6534,1.6605,1.6621,1.6691,1.6716,1.6756,1.6807,1.6809,1.6858,1.6882,1.6935,1.6952,1.7027,1.7041,1.7054,1.7058,1.7053,1.7052,1.7073,1.7067,1.7064,1.7064,1.7063,1.7062,0,1.6477,1.65,1.6578,1.6627,1.6641,1.6691,1.6733,1.6778,1.68,1.6864,1.6881,1.6915,1.6978,1.7003,1.708,1.7092,1.7178,1.7177,1.7162,1.7162,1.7209,1.7204,1.7356,1.7377,1.7259,1.726,1.7261,0,1.6536,1.6584,1.6638,1.6671,1.6698,1.6753,1.6788,1.6808,1.6845,1.6903,1.6941,1.7003,1.7053,1.7154,1.7187,1.7247,1.7247,1.7297,1.7256,1.7251,1.7248,1.7244,1.7249,1.7303,1.7305,1.7306,1.7306,0,1.664,1.6649,1.6699,1.6755,1.6797,1.6842,1.6886,1.6914,1.694,1.6983,1.7046,1.7085,1.7164,1.7226,1.7288,1.7317,1.7317,1.7319,1.7334,1.7329,1.7317,1.7324,1.7181,1.7315,1.7314,1.7314,1.7313,1.7313,1.6711,1.6753,1.6798,1.6855,1.689,1.6932,1.6976,1.7004,1.7056,1.712,1.713,1.7198,1.7247,1.7329,1.7361,1.7417,1.7404,1.7424,1.743,1.7434,1.7437,1.731,1.7428,1.7428,1.7428,1.7428,1.7427,0,1.6814,1.6843,1.6895,1.6956,1.7002,1.6997,1.7046,1.7085,1.7144,1.7189,1.7238,1.7313,1.7374,1.7413,1.7475,1.7512,1.7514,1.7528,1.7524,1.7531,1.7445,1.7426,1.7525,1.7525,1.7525,1.7525,1.7525,1.7525,1.6872,1.6944,1.696,1.7051,1.7081,1.7146,1.7174,1.7214,1.7249,1.7331,1.7382,1.7407,1.745,1.7516,1.7573,1.7583,1.7606,1.762,1.763,1.7548,1.7537,1.7528,1.751,1.7625,1.7626,1.7712,1.7713,1.7713]},{"header":{"parameterUnit":"m.s-1","parameterCategory":1,"la1":30.2991,"la2":30.254,"lo1":-89.0895,"lo2":-89.0444,"dy":0.0017,"dx":0.0017,"nx":28,"ny":28,"refTime":"2024-09-30T03:00:00:Z","depth":0,"parameterNumber":3,"parameterNumberName":"V-component_of_WINDS"},"data":[0,0,0,0,0,0,0,0,0,0,0,0,0,0,0,0,0,0,0,0,0,0,0,0,0,0,0,0,0,0,0,0,0,0,0,0,0,0,0,0,0,0,0,0,0,0,0,0,0,0,0,0,0,0,0,0,0,0,1.3831,1.3831,0,1.3876,1.3876,1.3877,1.3827,1.3825,1.3823,1.3821,1.387,1.3873,1.3876,0,0,0,0,0,0,0,0,0,0,0,0,0,1.3704,1.3707,1.3831,1.3832,1.3832,1.3876,1.3876,1.3877,1.3827,1.3825,1.3823,1.382,1.3869,1.3873,1.3877,0,0,0,0,0,0,0,0,0,0,0,0,0,1.3755,1.3708,1.3831,1.3812,1.3811,1.3876,1.3876,1.3877,1.3828,1.3825,1.3822,1.3819,1.3868,1.3873,1.3877,1.3963,0,0,1.3891,1.3893,0,0,0,0,0,0,0,0,1.3753,1.376,1.3815,1.3814,1.3813,1.3843,1.385,1.3906,1.3828,1.3822,1.3821,1.3818,1.3864,1.3869,1.3883,1.3965,1.3967,1.3892,1.3895,1.3897,1.3898,0,0,0,0,0,0,0,1.3749,1.3758,1.3849,1.3815,1.3814,1.3803,1.3807,1.386,1.3858,1.3822,1.3818,1.3824,1.3863,1.3879,1.3884,1.3968,1.3892,1.3896,1.3899,1.39,1.4121,1.4124,0,0,0,0,0,0,1.3747,1.3755,1.3847,1.385,1.3775,1.3807,1.3812,1.3836,1.3857,1.3858,1.3827,1.3822,1.3872,1.3879,1.3886,1.3987,1.3896,1.3901,1.3903,1.4118,1.4122,1.4125,0,0,0,0,0,0,1.3745,1.3756,1.3846,1.3802,1.3812,1.3812,1.384,1.3838,1.3855,1.3861,1.3861,1.3844,1.387,1.3879,1.3944,1.3988,1.3903,1.3907,1.4115,1.412,1.4124,1.419,0,0,0,0,0,0,1.3741,1.3755,1.3788,1.3803,1.3815,1.3902,1.3843,1.3841,1.3862,1.3856,1.3877,1.3877,1.3869,1.3937,1.3948,1.3993,1.3911,1.4111,1.4117,1.4122,1.4184,1.4196,1.4207,0,0,0,0,0,1.3737,1.3805,1.3789,1.3801,1.3855,1.3905,1.3912,1.39,1.3866,1.3899,1.3903,1.3877,1.3981,1.3944,1.3956,1.4003,1.4108,1.4115,1.4122,1.4179,1.4194,1.4207,0,0,0,0,0,0,1.3797,1.3807,1.379,1.3865,1.3884,1.3896,1.3937,1.3917,1.3947,1.394,1.3925,1.393,1.3998,1.4007,1.3965,1.4086,1.4039,1.4049,1.4078,1.4092,1.4104,1.41,1.3915,0,0,0,0,0,1.3818,1.3857,1.3865,1.393,1.3941,1.3937,1.3959,1.3948,1.3968,1.3976,1.3985,1.4006,1.4043,1.4068,1.4103,1.4185,1.4188,1.4223,1.4234,1.4244,1.4252,1.4295,1.431,1.4148,1.4148,1.4148,0,0,1.3864,1.3874,1.39,1.3942,1.3956,1.3997,1.3945,1.3991,1.4022,1.3983,1.4044,1.4051,1.4074,1.4147,1.418,1.4157,1.4298,1.4252,1.426,1.4263,1.4304,1.4319,1.4333,1.4153,1.4152,1.4151,0,0,1.3968,1.398,1.4035,1.4049,1.407,1.4068,1.4081,1.4096,1.4099,1.416,1.4132,1.4168,1.4233,1.425,1.4267,1.4377,1.4354,1.4388,1.4449,1.4491,1.4504,1.4515,1.4554,1.4568,1.4397,1.4397,1.4397,0,1.4022,1.4082,1.4066,1.4114,1.4133,1.4099,1.4156,1.4171,1.4203,1.4217,1.419,1.427,1.4283,1.4359,1.4386,1.4401,1.4416,1.4386,1.4503,1.4514,1.4524,1.4561,1.4576,1.4401,1.4401,1.44,1.44,0,1.4147,1.419,1.4232,1.4262,1.4286,1.4338,1.4331,1.4357,1.4344,1.4344,1.4406,1.442,1.4457,1.4474,1.4462,1.4549,1.4533,1.4505,1.4457,1.4544,1.4578,1.4592,1.4407,1.4406,1.4404,1.4403,0,0,1.429,1.431,1.4326,1.4339,1.4359,1.4392,1.4442,1.4477,1.45,1.4523,1.4565,1.462,1.4593,1.4613,1.4602,1.464,1.4724,1.4607,1.4607,1.4628,1.482,1.4841,1.4857,1.4709,1.4712,1.4714,1.4818,0,1.4394,1.448,1.4467,1.455,1.4589,1.4557,1.4601,1.4618,1.462,1.4653,1.4655,1.4694,1.4656,1.4668,1.4703,1.4707,1.4763,1.4699,1.4748,1.475,1.4743,1.4875,1.4898,1.4995,1.4831,1.4833,1.4835,0,1.4527,1.4553,1.464,1.4653,1.4669,1.4709,1.4739,1.4771,1.479,1.4789,1.481,1.4792,1.4843,1.4794,1.4864,1.482,1.484,1.4845,1.4848,1.4852,1.4798,1.4883,1.5026,1.5041,1.4856,1.4854,1.4853,0,1.4622,1.4679,1.4738,1.475,1.4768,1.4796,1.4805,1.4821,1.4842,1.4869,1.4883,1.4916,1.4934,1.4959,1.4951,1.4917,1.5022,1.4973,1.5023,1.5023,1.5047,1.5045,1.5195,1.506,1.5059,1.5059,1.5059,0,1.4739,1.4793,1.4781,1.4817,1.4877,1.4862,1.4922,1.4927,1.4941,1.4978,1.4953,1.4988,1.4975,1.501,1.5004,1.5062,1.5071,1.5071,1.5069,1.5073,1.5073,1.5086,1.5079,1.5063,1.5062,1.5061,1.5061,0,1.4855,1.4849,1.4911,1.4922,1.4926,1.497,1.4979,1.5013,1.5012,1.506,1.507,1.5069,1.5108,1.5102,1.5147,1.5143,1.5215,1.5205,1.5208,1.5206,1.5255,1.5251,1.5418,1.5439,1.5291,1.5292,1.5293,0,1.493,1.497,1.4985,1.5008,1.5018,1.5055,1.5076,1.5063,1.5086,1.511,1.5142,1.5179,1.5208,1.5272,1.5276,1.531,1.53,1.5356,1.5305,1.5307,1.53,1.5298,1.5301,1.5366,1.5368,1.5369,1.537,0,1.5063,1.5058,1.5089,1.5119,1.5145,1.5168,1.5189,1.5209,1.5198,1.5226,1.5265,1.5287,1.5332,1.5369,1.54,1.541,1.5389,1.5386,1.54,1.5404,1.5405,1.5405,1.5236,1.5383,1.5382,1.5381,1.538,1.5379,1.5161,1.5195,1.521,1.5246,1.526,1.528,1.5312,1.5315,1.5347,1.5382,1.5372,1.5417,1.5434,1.5474,1.5487,1.5522,1.5501,1.5521,1.5525,1.553,1.5536,1.5399,1.5528,1.5527,1.5527,1.5527,1.5526,0,1.5292,1.53,1.5333,1.5362,1.539,1.5367,1.5388,1.5414,1.5453,1.5471,1.5499,1.5544,1.558,1.5586,1.562,1.5647,1.5638,1.5656,1.5654,1.5656,1.5553,1.5538,1.5662,1.5662,1.5662,1.5662,1.5662,1.5662,1.5364,1.542,1.5417,1.548,1.5488,1.5531,1.5546,1.5564,1.5578,1.5629,1.5658,1.5661,1.5674,1.5709,1.574,1.5741,1.5755,1.5777,1.5774,1.5677,1.5664,1.5651,1.5636,1.578,1.578,1.5874,1.5875,1.5876]}]]